Location: Asheville, NC
(35.6000°N, 82.5500°W)
Time: 00:15:46
(UTC-04:00)

BEESAT 2 - Pass Details

Date: 14 March 2018
Orbit: 502 x 533 km, 64.9° (Epoch: 22 June)

Event Time Altitude Azimuth Distance (km) Brightness Sun altitude
Exits shadow 06:05:33 - 338° (NNW) 2,401 ? -20.4°
Reaches altitude 10° 06:07:08 10° 343° (NNW) 1,782 ? -20.1°
Maximum altitude 06:10:59 45° 57° (ENE) 725 ? -19.3°
Drops below altitude 10° 06:14:46 10° 131° (SE) 1,758 ? -18.6°
Sets 06:17:00 0° 138° (SE) 2,637 ? -18.1°
